Time,TemperatureF,DewpointF,PressureIn,WindDirection,WindDirectionDegrees,WindSpeedMPH,WindSpeedGustMPH,Humidity,HourlyPrecipIn,Conditions,Clouds,dailyrainin,SoftwareType,DateUTC
2013-03-17 00:04:00,46.0,46.0,29.87,North,360,7.0,10.0,100,0.00,,,-99.99,Weather View 32 v60,2013-03-17 04:04:00,
2013-03-17 00:08:00,46.0,46.0,29.87,North,360,7.0,10.0,100,0.00,,,-99.99,Weather View 32 v60,2013-03-17 04:08:00,
2013-03-17 00:09:00,45.0,45.0,29.86,North,360,3.0,13.0,100,0.00,,,-99.99,Weather View 32 v60,2013-03-17 04:09:00,
2013-03-17 00:14:00,44.0,44.0,29.87,NE,45,12.0,14.0,100,0.00,,,-99.99,Weather View 32 v60,2013-03-17 04:14:00,
2013-03-17 00:24:00,44.0,44.0,29.88,NNE,22,7.0,14.0,100,0.00,,,-99.99,Weather View 32 v60,2013-03-17 04:24:00,
2013-03-17 00:29:00,44.0,44.0,29.88,NE,45,6.0,14.0,100,0.00,,,-99.99,Weather View 32 v60,2013-03-17 04:29:00,
2013-03-17 00:39:00,43.0,43.0,29.88,NNE,22,6.0,14.0,100,0.00,,,-99.99,Weather View 32 v60,2013-03-17 04:39:00,
2013-03-17 00:49:00,43.0,43.0,29.89,NE,45,8.0,14.0,100,0.00,,,-99.99,Weather View 32 v60,2013-03-17 04:49:00,
2013-03-17 00:59:00,42.0,42.0,29.89,North,360,4.0,14.0,100,0.01,,,-99.99,Weather View 32 v60,2013-03-17 04:59:00,
2013-03-17 01:08:00,42.0,42.0,29.90,NNE,22,9.0,14.0,100,0.01,,,-99.99,Weather View 32 v60,2013-03-17 05:08:00,
2013-03-17 01:14:00,42.0,42.0,29.89,NE,45,7.0,14.0,100,0.01,,,-99.99,Weather View 32 v60,2013-03-17 05:14:00,
2013-03-17 01:19:00,41.0,41.0,29.89,NNE,22,10.0,12.0,100,0.01,,,-99.99,Weather View 32 v60,2013-03-17 05:19:00,
2013-03-17 01:29:00,41.0,41.0,29.90,NNE,22,6.0,13.0,100,0.01,,,-99.99,Weather View 32 v60,2013-03-17 05:29:00,
2013-03-17 01:34:00,41.0,41.0,29.89,NE,45,5.0,13.0,100,0.01,,,-99.99,Weather View 32 v60,2013-03-17 05:34:00,
2013-03-17 01:39:00,41.0,41.0,29.89,NE,45,9.0,13.0,100,0.01,,,-99.99,Weather View 32 v60,2013-03-17 05:39:00,
2013-03-17 01:44:00,41.0,41.0,29.87,North,360,6.0,15.0,100,0.01,,,-99.99,Weather View 32 v60,2013-03-17 05:44:00,
2013-03-17 01:49:00,41.0,41.0,29.87,NNE,22,7.0,15.0,100,0.01,,,-99.99,Weather View 32 v60,2013-03-17 05:49:00,
2013-03-17 01:59:00,40.0,40.0,29.87,NE,45,10.0,15.0,100,0.00,,,-99.99,Weather View 32 v60,2013-03-17 05:59:00,
2013-03-17 02:04:00,40.0,40.0,29.88,NNE,22,8.0,15.0,100,0.00,,,-99.99,Weather View 32 v60,2013-03-17 06:04:00,
2013-03-17 02:09:00,40.0,40.0,29.88,NNE,22,7.0,15.0,100,0.00,,,-99.99,Weather View 32 v60,2013-03-17 06:09:00,
2013-03-17 02:19:00,40.0,40.0,29.89,NE,45,6.0,15.0,100,0.00,,,-99.99,Weather View 32 v60,2013-03-17 06:19:00,
2013-03-17 02:29:00,40.0,40.0,29.88,ENE,67,2.0,15.0,100,0.00,,,-99.99,Weather View 32 v60,2013-03-17 06:29:00,
2013-03-17 02:39:00,40.0,40.0,29.88,NE,45,5.0,15.0,100,0.00,,,-99.99,Weather View 32 v60,2013-03-17 06:39:00,
2013-03-17 02:49:00,40.0,40.0,29.87,NNE,22,7.0,12.0,100,0.00,,,-99.99,Weather View 32 v60,2013-03-17 06:49:00,
2013-03-17 02:59:00,40.0,40.0,29.89,NE,45,5.0,11.0,100,0.00,,,-99.99,Weather View 32 v60,2013-03-17 06:59:00,
2013-03-17 03:09:00,40.0,40.0,29.89,NE,45,9.0,11.0,100,0.00,,,-99.99,Weather View 32 v60,2013-03-17 07:09:00,
2013-03-17 03:19:00,40.0,40.0,29.88,NE,45,7.0,11.0,100,0.00,,,-99.99,Weather View 32 v60,2013-03-17 07:19:00,
2013-03-17 03:24:00,40.0,40.0,29.89,NE,45,5.0,11.0,100,0.00,,,-99.99,Weather View 32 v60,2013-03-17 07:24:00,
2013-03-17 03:29:00,40.0,40.0,29.89,NE,45,6.0,11.0,100,0.00,,,-99.99,Weather View 32 v60,2013-03-17 07:29:00,
2013-03-17 03:39:00,40.0,40.0,29.89,NE,45,5.0,11.0,100,0.00,,,-99.99,Weather View 32 v60,2013-03-17 07:39:00,
2013-03-17 03:49:00,40.0,40.0,29.88,NE,45,3.0,10.0,100,0.00,,,-99.99,Weather View 32 v60,2013-03-17 07:49:00,
2013-03-17 03:59:00,40.0,40.0,29.89,ENE,67,5.0,10.0,100,0.00,,,-99.99,Weather View 32 v60,2013-03-17 07:59:00,
2013-03-17 04:04:00,40.0,40.0,29.89,NE,45,5.0,10.0,100,0.00,,,-99.99,Weather View 32 v60,2013-03-17 08:04:00,
2013-03-17 04:09:00,40.0,40.0,29.89,ENE,67,8.0,10.0,100,0.00,,,-99.99,Weather View 32 v60,2013-03-17 08:09:00,
2013-03-17 04:19:00,40.0,40.0,29.88,NE,45,4.0,10.0,100,0.00,,,-99.99,Weather View 32 v60,2013-03-17 08:19:00,
2013-03-17 04:24:00,40.0,40.0,29.89,NE,45,8.0,10.0,100,0.00,,,-99.99,Weather View 32 v60,2013-03-17 08:24:00,
2013-03-17 04:29:00,40.0,40.0,29.89,NNE,22,6.0,10.0,100,0.00,,,-99.99,Weather View 32 v60,2013-03-17 08:29:00,
2013-03-17 04:39:00,40.0,40.0,29.89,NE,45,7.0,10.0,100,0.00,,,-99.99,Weather View 32 v60,2013-03-17 08:39:00,
2013-03-17 04:49:00,39.0,39.0,29.89,NE,45,6.0,10.0,100,0.00,,,-99.99,Weather View 32 v60,2013-03-17 08:49:00,
2013-03-17 04:54:00,40.0,40.0,29.89,NNE,22,6.0,10.0,100,0.00,,,-99.99,Weather View 32 v60,2013-03-17 08:54:00,
2013-03-17 04:59:00,39.0,39.0,29.89,NNE,22,6.0,10.0,100,0.00,,,-99.99,Weather View 32 v60,2013-03-17 08:59:00,
2013-03-17 05:04:00,39.0,39.0,29.92,NNE,22,3.0,10.0,100,0.00,,,-99.99,Weather View 32 v60,2013-03-17 09:04:00,
2013-03-17 05:09:00,39.0,39.0,29.92,North,360,1.0,10.0,100,0.00,,,-99.99,Weather View 32 v60,2013-03-17 09:09:00,
2013-03-17 05:14:00,39.0,39.0,29.93,NNW,337,5.0,10.0,100,0.00,,,-99.99,Weather View 32 v60,2013-03-17 09:14:00,
2013-03-17 05:19:00,39.0,39.0,29.93,North,360,3.0,10.0,100,0.01,,,-99.99,Weather View 32 v60,2013-03-17 09:19:00,
2013-03-17 05:24:00,39.0,39.0,29.93,North,360,5.0,10.0,100,0.01,,,-99.99,Weather View 32 v60,2013-03-17 09:24:00,
2013-03-17 05:29:00,38.0,38.0,29.93,NNW,337,3.0,10.0,100,0.01,,,-99.99,Weather View 32 v60,2013-03-17 09:29:00,
2013-03-17 05:34:00,38.0,38.0,29.92,NNE,22,3.0,10.0,100,0.01,,,-99.99,Weather View 32 v60,2013-03-17 09:34:00,
2013-03-17 05:39:00,38.0,38.0,29.92,NNE,22,3.0,10.0,100,0.01,,,-99.99,Weather View 32 v60,2013-03-17 09:39:00,
2013-03-17 05:44:00,38.0,38.0,29.91,NNE,22,3.0,10.0,100,0.01,,,-99.99,Weather View 32 v60,2013-03-17 09:44:00,
2013-03-17 05:49:00,38.0,38.0,29.91,North,360,5.0,10.0,100,0.01,,,-99.99,Weather View 32 v60,2013-03-17 09:49:00,
2013-03-17 05:59:00,38.0,38.0,29.92,North,360,4.0,9.0,100,0.02,,,-99.99,Weather View 32 v60,2013-03-17 09:59:00,
2013-03-17 06:09:00,37.0,37.0,29.92,North,360,6.0,10.0,100,0.02,,,-99.99,Weather View 32 v60,2013-03-17 10:09:00,
2013-03-17 06:14:00,37.0,37.0,29.92,North,360,5.0,11.0,100,0.02,,,-99.99,Weather View 32 v60,2013-03-17 10:14:00,
2013-03-17 06:24:00,37.0,37.0,29.95,North,360,5.0,11.0,100,0.02,,,-99.99,Weather View 32 v60,2013-03-17 10:24:00,
2013-03-17 06:39:00,37.0,37.0,29.96,NNW,337,6.0,11.0,100,0.02,,,-99.99,Weather View 32 v60,2013-03-17 10:39:00,
2013-03-17 06:54:00,37.0,37.0,29.94,NNE,22,9.0,13.0,100,0.01,,,-99.99,Weather View 32 v60,2013-03-17 10:54:00,
2013-03-17 06:59:00,37.0,37.0,29.94,North,360,7.0,14.0,100,0.01,,,-99.99,Weather View 32 v60,2013-03-17 10:59:00,
2013-03-17 07:04:00,37.0,37.0,29.95,NE,45,10.0,14.0,100,0.01,,,-99.99,Weather View 32 v60,2013-03-17 11:04:00,
2013-03-17 07:09:00,36.0,36.0,29.95,North,360,11.0,15.0,100,0.01,,,-99.99,Weather View 32 v60,2013-03-17 11:09:00,
2013-03-17 07:19:00,36.0,36.0,29.96,North,360,6.0,15.0,100,0.01,,,-99.99,Weather View 32 v60,2013-03-17 11:19:00,
2013-03-17 07:24:00,36.0,36.0,29.98,North,360,9.0,15.0,100,0.01,,,-99.99,Weather View 32 v60,2013-03-17 11:24:00,
2013-03-17 07:29:00,36.0,36.0,29.98,North,360,6.0,15.0,100,0.00,,,-99.99,Weather View 32 v60,2013-03-17 11:29:00,
2013-03-17 07:34:00,36.0,36.0,29.98,North,360,8.0,15.0,100,0.00,,,-99.99,Weather View 32 v60,2013-03-17 11:34:00,
2013-03-17 07:39:00,36.0,36.0,29.98,NNE,22,6.0,15.0,100,0.02,,,-99.99,Weather View 32 v60,2013-03-17 11:39:00,
2013-03-17 07:49:00,35.0,35.0,29.98,NNE,22,9.0,15.0,100,0.00,,,-99.99,Weather View 32 v60,2013-03-17 11:49:00,
2013-03-17 07:54:00,36.0,36.0,29.99,NE,45,8.0,15.0,100,0.03,,,-99.99,Weather View 32 v60,2013-03-17 11:54:00,
2013-03-17 07:59:00,35.0,35.0,29.99,NNE,22,7.0,15.0,100,0.03,,,-99.99,Weather View 32 v60,2013-03-17 11:59:00,
2013-03-17 08:04:00,35.0,35.0,29.99,North,360,10.0,15.0,100,0.03,,,-99.99,Weather View 32 v60,2013-03-17 12:04:00,
2013-03-17 08:19:00,35.0,35.0,29.99,NE,45,8.0,13.0,100,0.04,,,-99.99,Weather View 32 v60,2013-03-17 12:19:00,
2013-03-17 08:24:00,35.0,35.0,29.99,NNE,22,7.0,13.0,100,0.03,,,-99.99,Weather View 32 v60,2013-03-17 12:24:00,
2013-03-17 08:34:00,35.0,35.0,29.99,NE,45,12.0,16.0,100,0.02,,,-99.99,Weather View 32 v60,2013-03-17 12:34:00,
2013-03-17 08:39:00,34.0,34.0,29.99,NE,45,10.0,16.0,100,0.02,,,-99.99,Weather View 32 v60,2013-03-17 12:39:00,
2013-03-17 08:49:00,34.0,34.0,30.00,NE,45,12.0,16.0,100,0.01,,,-99.99,Weather View 32 v60,2013-03-17 12:49:00,
2013-03-17 08:54:00,35.0,35.0,30.00,NE,45,6.0,16.0,100,0.01,,,-99.99,Weather View 32 v60,2013-03-17 12:54:00,
2013-03-17 08:59:00,34.0,34.0,30.00,NE,45,12.0,16.0,100,0.01,,,-99.99,Weather View 32 v60,2013-03-17 12:59:00,
2013-03-17 09:04:00,34.0,34.0,30.00,NE,45,10.0,16.0,100,0.01,,,-99.99,Weather View 32 v60,2013-03-17 13:04:00,
2013-03-17 09:09:00,34.0,34.0,30.00,NNE,22,10.0,16.0,100,0.00,,,-99.99,Weather View 32 v60,2013-03-17 13:09:00,
2013-03-17 09:19:00,34.0,34.0,30.00,NNE,22,9.0,16.0,100,0.01,,,-99.99,Weather View 32 v60,2013-03-17 13:19:00,
2013-03-17 09:29:00,34.0,34.0,30.01,NE,45,13.0,16.0,100,0.01,,,-99.99,Weather View 32 v60,2013-03-17 13:29:00,
2013-03-17 09:39:00,34.0,34.0,30.00,NE,45,10.0,16.0,100,0.01,,,-99.99,Weather View 32 v60,2013-03-17 13:39:00,
2013-03-17 09:44:00,34.0,34.0,30.00,North,360,10.0,16.0,100,0.01,,,-99.99,Weather View 32 v60,2013-03-17 13:44:00,
2013-03-17 09:49:00,34.0,34.0,30.00,NE,45,13.0,16.0,100,0.01,,,-99.99,Weather View 32 v60,2013-03-17 13:49:00,
2013-03-17 09:59:00,34.0,34.0,30.00,NE,45,10.0,16.0,100,0.01,,,-99.99,Weather View 32 v60,2013-03-17 13:59:00,
2013-03-17 10:09:00,34.0,34.0,30.00,NE,45,9.0,16.0,100,0.00,,,-99.99,Weather View 32 v60,2013-03-17 14:09:00,
2013-03-17 10:19:00,34.0,34.0,30.00,NE,45,9.0,16.0,100,0.00,,,-99.99,Weather View 32 v60,2013-03-17 14:19:00,
2013-03-17 10:29:00,34.0,34.0,30.00,NNE,22,11.0,16.0,100,0.00,,,-99.99,Weather View 32 v60,2013-03-17 14:29:00,
2013-03-17 10:30:00,34.0,34.0,30.00,NNE,22,11.0,16.0,100,0.00,,,-99.99,Weather View 32 v60,2013-03-17 14:30:00,
2013-03-17 20:49:00,35.0,35.0,29.90,NE,45,4.0,4.0,100,0.03,,,-99.99,Weather View 32 v60,2013-03-18 00:49:00,
2013-03-17 20:59:00,35.0,35.0,29.90,NE,45,10.0,10.0,100,0.04,,,-99.99,Weather View 32 v60,2013-03-18 00:59:00,
2013-03-17 21:09:00,35.0,35.0,29.90,NE,45,6.0,18.0,100,0.05,,,-99.99,Weather View 32 v60,2013-03-18 01:09:00,
2013-03-17 21:19:00,35.0,35.0,29.90,NE,45,16.0,18.0,100,0.06,,,-99.99,Weather View 32 v60,2013-03-18 01:19:00,
2013-03-17 21:29:00,35.0,35.0,29.89,ENE,67,6.0,18.0,100,0.05,,,-99.99,Weather View 32 v60,2013-03-18 01:29:00,
2013-03-17 21:34:00,35.0,35.0,29.89,ENE,67,10.0,18.0,100,0.04,,,-99.99,Weather View 32 v60,2013-03-18 01:34:00,
2013-03-17 21:44:00,35.0,35.0,29.88,NE,45,10.0,18.0,100,0.03,,,-99.99,Weather View 32 v60,2013-03-18 01:44:00,
2013-03-17 21:54:00,35.0,35.0,29.89,NE,45,8.0,18.0,100,0.02,,,-99.99,Weather View 32 v60,2013-03-18 01:54:00,
2013-03-17 21:59:00,35.0,35.0,29.89,NE,45,14.0,18.0,100,0.02,,,-99.99,Weather View 32 v60,2013-03-18 01:59:00,
2013-03-17 22:09:00,35.0,35.0,29.88,NE,45,9.0,18.0,100,0.02,,,-99.99,Weather View 32 v60,2013-03-18 02:09:00,
2013-03-17 22:14:00,35.0,35.0,29.90,ENE,67,9.0,18.0,100,0.02,,,-99.99,Weather View 32 v60,2013-03-18 02:14:00,
2013-03-17 22:19:00,35.0,35.0,29.90,NE,45,11.0,18.0,100,0.01,,,-99.99,Weather View 32 v60,2013-03-18 02:19:00,
2013-03-17 22:29:00,34.0,34.0,29.90,ENE,67,10.0,17.0,100,0.01,,,-99.99,Weather View 32 v60,2013-03-18 02:29:00,
2013-03-17 22:39:00,34.0,34.0,29.90,NE,45,9.0,17.0,100,0.02,,,-99.99,Weather View 32 v60,2013-03-18 02:39:00,
2013-03-17 22:49:00,34.0,34.0,29.89,NE,45,10.0,17.0,100,0.02,,,-99.99,Weather View 32 v60,2013-03-18 02:49:00,
2013-03-17 22:54:00,34.0,34.0,29.89,ENE,67,10.0,17.0,100,0.02,,,-99.99,Weather View 32 v60,2013-03-18 02:54:00,
2013-03-17 23:00:00,34.0,34.0,29.89,NE,45,7.0,16.0,100,0.02,,,-99.99,Weather View 32 v60,2013-03-18 03:00:00,
2013-03-17 23:09:00,34.0,34.0,29.88,ENE,67,8.0,15.0,100,0.01,,,-99.99,Weather View 32 v60,2013-03-18 03:09:00,
2013-03-17 23:19:00,34.0,34.0,29.88,ENE,67,7.0,15.0,100,0.01,,,-99.99,Weather View 32 v60,2013-03-18 03:19:00,
2013-03-17 23:24:00,34.0,34.0,29.87,NE,45,6.0,15.0,100,0.01,,,-99.99,Weather View 32 v60,2013-03-18 03:24:00,
2013-03-17 23:34:00,35.0,35.0,29.87,ENE,67,12.0,15.0,100,0.00,,,-99.99,Weather View 32 v60,2013-03-18 03:34:00,
2013-03-17 23:44:00,34.0,34.0,29.86,NE,45,8.0,15.0,100,0.00,,,-99.99,Weather View 32 v60,2013-03-18 03:44:00,
2013-03-17 23:49:00,34.0,34.0,29.86,ENE,67,7.0,14.0,100,0.00,,,-99.99,Weather View 32 v60,2013-03-18 03:49:00,
2013-03-17 23:59:00,34.0,34.0,29.86,NE,45,8.0,14.0,100,0.00,,,-99.99,Weather View 32 v60,2013-03-18 03:59:00,